Location: Madrid
(40.4000°N, 3.6830°W)
Time: 12:54:06
(UTC+01:00)

ISS - Pass Details

Date: 24 March 2019
Orbit: 408 x 411 km, 51.6° (Epoch: 24 March)

Event Time Altitude Azimuth Distance (km) Brightness Sun altitude
Rises 21:02:50 0° 263° (W) 2,329 1.2 -18.0°
Reaches altitude 10° 21:05:09 10° 277° (W) 1,470 0.2 -18.5°
Maximum altitude 21:07:56 25° 335° (NNW) 870 -1.7 -19.0°
Enters shadow 21:09:56 15° 24° (NNE) 1,212 -1.5 -19.3°
